When you browse on this site, cookies collect data to enhance your experience and personalize the content and advertising you see.
Visit our Privacy Policy to learn more. By continuing to use the site, you agree to this use of cookies and data.
  • In Hungary
  • List of Countries
  • For 7 days
  • Water Temperature
  • Satellite Maps
  • Weather Map
  • News
  • Weather Widgets
  • user-avatar
    Login

    Hourly Weather Bansko

    Today, 21 November, Wednesday

    Time Temperature Precipitation Wind Pressure Humidity
    00:00 +10°C° 0.4 mm 2 mps 719 mmHg 93%
    01:00 +10°C° 0.4 mm 2 mps 718 mmHg 93%
    02:00 +10°C° 0.4 mm 2 mps 718 mmHg 93%
    03:00 +10°C° 0.4 mm 2 mps 717 mmHg 93%
    04:00 +10°C° 0.4 mm 2 mps 717 mmHg 93%
    05:00 +10°C° 0.4 mm 2 mps 716 mmHg 93%
    06:00 +10°C° 0.5 mm 2 mps 716 mmHg 93%
    07:00 +11°C° 0.5 mm 1 mps 716 mmHg 93%
    08:00 +11°C° 0.5 mm 1 mps 716 mmHg 94%
    09:00 +12°C° 0.7 mm 1 mps 716 mmHg 93%
    10:00 +12°C° 0.7 mm 1 mps 716 mmHg 92%
    11:00 +12°C° 0.7 mm 1 mps 716 mmHg 91%
    12:00 +12°C° 0.9 mm 1 mps 716 mmHg 90%
    13:00 +12°C° 0.9 mm 1 mps 716 mmHg 88%
    14:00 +12°C° 0.9 mm 2 mps 716 mmHg 87%
    15:00 +10°C° 0.3 mm 2 mps 717 mmHg 88%
    16:00 +11°C° 0.3 mm 1 mps 717 mmHg 89%
    17:00 +10°C° 0.3 mm 1 mps 717 mmHg 91%
    18:00 +10°C° 0.1 mm 1 mps 718 mmHg 91%
    19:00 +8°C° 0.1 mm 2 mps 718 mmHg 91%
    20:00 +8°C° 0.1 mm 2 mps 718 mmHg 91%
    21:00 +8°C° 0 mm 2 mps 719 mmHg 91%
    22:00 +7°C° 0 mm 2 mps 719 mmHg 91%
    23:00 +7°C° 0 mm 2 mps 720 mmHg 91%

    Tomorrow, 22 November, Thursday

    Time Temperature Precipitation Wind Pressure Humidity
    00:00 +7°C° 0 mm 2 mps 720 mmHg 91%
    01:00 +6°C° 0 mm 2 mps 720 mmHg 91%
    02:00 +6°C° 0 mm 2 mps 720 mmHg 91%
    03:00 +7°C° 0 mm 1 mps 720 mmHg 90%
    04:00 +7°C° 0 mm 1 mps 720 mmHg 90%
    05:00 +6°C° 0 mm 1 mps 721 mmHg 90%
    06:00 +6°C° 0 mm 1 mps 721 mmHg 89%
    07:00 +6°C° 0 mm 1 mps 721 mmHg 88%
    08:00 +6°C° 0 mm 1 mps 721 mmHg 88%
    09:00 +8°C° 0 mm 1 mps 722 mmHg 82%
    10:00 +10°C° 0 mm 1 mps 722 mmHg 77%
    11:00 +11°C° 0 mm 1 mps 722 mmHg 71%
    12:00 +12°C° 0 mm 1 mps 722 mmHg 70%
    13:00 +12°C° 0 mm 1 mps 722 mmHg 69%
    14:00 +13°C° 0 mm 2 mps 722 mmHg 67%
    15:00 +12°C° 0 mm 1 mps 722 mmHg 72%
    16:00 +11°C° 0 mm 1 mps 723 mmHg 76%
    17:00 +10°C° 0 mm 1 mps 723 mmHg 80%
    18:00 +9°C° 0 mm 1 mps 723 mmHg 82%
    19:00 +8°C° 0 mm 1 mps 723 mmHg 84%
    20:00 +8°C° 0 mm 1 mps 724 mmHg 85%
    21:00 +8°C° 0 mm 1 mps 724 mmHg 86%
    22:00 +7°C° 0 mm 1 mps 724 mmHg 86%
    23:00 +7°C° 0 mm 1 mps 725 mmHg 87%

    Day after tomorrow, 23 November, Friday

    Time Temperature Precipitation Wind Pressure Humidity
    00:00 +7°C° 0 mm 1 mps 725 mmHg 87%
    01:00 +7°C° 0 mm 1 mps 725 mmHg 87%
    02:00 +6°C° 0 mm 1 mps 725 mmHg 87%
    03:00 +6°C° 0 mm 1 mps 725 mmHg 87%
    04:00 +6°C° 0 mm 1 mps 725 mmHg 87%
    05:00 +6°C° 0 mm 1 mps 725 mmHg 87%
    06:00 +6°C° 0 mm 1 mps 725 mmHg 87%
    07:00 +6°C° 0 mm 1 mps 726 mmHg 86%
    08:00 +6°C° 0 mm 1 mps 726 mmHg 86%
    09:00 +8°C° 0 mm 1 mps 727 mmHg 80%
    10:00 +9°C° 0 mm 1 mps 727 mmHg 75%
    11:00 +11°C° 0 mm 1 mps 727 mmHg 69%
    12:00 +12°C° 0 mm 1 mps 727 mmHg 67%
    13:00 +12°C° 0 mm 1 mps 727 mmHg 66%
    14:00 +13°C° 0 mm 1 mps 727 mmHg 65%
    15:00 +11°C° 0 mm 1 mps 726 mmHg 69%
    16:00 +10°C° 0 mm 1 mps 726 mmHg 74%
    17:00 +9°C° 0 mm 1 mps 726 mmHg 79%
    18:00 +9°C° 0 mm 1 mps 727 mmHg 81%
    19:00 +8°C° 0 mm 1 mps 727 mmHg 84%
    20:00 +7°C° 0 mm 1 mps 727 mmHg 87%
    21:00 +7°C° 0 mm 1 mps 727 mmHg 88%
    22:00 +7°C° 0 mm 1 mps 727 mmHg 88%
    23:00 +7°C° 0 mm 1 mps 728 mmHg 89%

    24 November, Saturday

    Time Temperature Precipitation Wind Pressure Humidity
    00:00 +6°C° 0 mm 0 mps 727 mmHg 90%
    01:00 +5°C° 0 mm 0 mps 727 mmHg 91%
    02:00 +5°C° 0 mm 0 mps 727 mmHg 91%
    03:00 +5°C° 0 mm 0 mps 727 mmHg 91%
    04:00 +5°C° 0 mm 0 mps 727 mmHg 91%
    05:00 +6°C° 0 mm 1 mps 726 mmHg 91%
    06:00 +6°C° 0 mm 1 mps 726 mmHg 91%
    07:00 +6°C° 0 mm 1 mps 726 mmHg 91%
    08:00 +6°C° 0 mm 1 mps 726 mmHg 91%
    09:00 +8°C° 0 mm 1 mps 726 mmHg 84%
    10:00 +10°C° 0 mm 1 mps 726 mmHg 78%
    11:00 +10°C° 0 mm 2 mps 726 mmHg 72%
    12:00 +12°C° 0 mm 2 mps 726 mmHg 69%
    13:00 +12°C° 0 mm 2 mps 725 mmHg 67%
    14:00 +12°C° 0 mm 2 mps 724 mmHg 65%
    15:00 +10°C° 0 mm 2 mps 724 mmHg 70%
    16:00 +10°C° 0 mm 1 mps 724 mmHg 75%
    17:00 +9°C° 0 mm 1 mps 724 mmHg 80%
    18:00 +9°C° 0 mm 1 mps 724 mmHg 82%
    19:00 +8°C° 0 mm 1 mps 724 mmHg 85%
    20:00 +8°C° 0 mm 1 mps 724 mmHg 87%
    21:00 +8°C° 0 mm 1 mps 724 mmHg 86%
    22:00 +8°C° 0 mm 1 mps 723 mmHg 85%
    23:00 +8°C° 0 mm 1 mps 723 mmHg 85%

    25 November, Sunday

    Time Temperature Precipitation Wind Pressure Humidity
    00:00 +8°C° 0 mm 1 mps 723 mmHg 85%
    01:00 +8°C° 0 mm 1 mps 723 mmHg 85%
    02:00 +7°C° 0 mm 1 mps 722 mmHg 85%
    03:00 +7°C° 0 mm 1 mps 722 mmHg 85%
    04:00 +7°C° 0 mm 1 mps 722 mmHg 85%
    05:00 +7°C° 0 mm 1 mps 721 mmHg 85%
    06:00 +7°C° 0 mm 1 mps 721 mmHg 85%
    07:00 +7°C° 0 mm 1 mps 721 mmHg 84%
    08:00 +7°C° 0 mm 1 mps 721 mmHg 84%
    09:00 +9°C° 0 mm 1 mps 721 mmHg 78%
    10:00 +11°C° 0 mm 1 mps 721 mmHg 72%
    11:00 +13°C° 0 mm 2 mps 721 mmHg 66%
    12:00 +14°C° 0 mm 2 mps 721 mmHg 65%
    13:00 +14°C° 0 mm 2 mps 720 mmHg 64%
    14:00 +15°C° 0 mm 2 mps 720 mmHg 62%
    15:00 +13°C° 0 mm 2 mps 719 mmHg 69%
    16:00 +12°C° 0 mm 1 mps 719 mmHg 75%
    17:00 +11°C° 0 mm 1 mps 719 mmHg 81%
    18:00 +10°C° 0 mm 1 mps 719 mmHg 83%
    19:00 +10°C° 0 mm 1 mps 719 mmHg 85%
    20:00 +10°C° 0 mm 1 mps 719 mmHg 87%
    21:00 +9°C° 0 mm 1 mps 718 mmHg 88%
    22:00 +9°C° 0 mm 1 mps 718 mmHg 89%
    23:00 +9°C° 0 mm 1 mps 718 mmHg 89%

    26 November, Monday

    Time Temperature Precipitation Wind Pressure Humidity
    00:00 +8°C° 0.1 mm 2 mps 718 mmHg 89%
    01:00 +8°C° 0.1 mm 2 mps 717 mmHg 89%
    02:00 +8°C° 0.1 mm 2 mps 717 mmHg 89%
    03:00 +8°C° 0.1 mm 2 mps 717 mmHg 89%
    04:00 +8°C° 0.1 mm 2 mps 716 mmHg 89%
    05:00 +8°C° 0.1 mm 2 mps 715 mmHg 89%
    06:00 +8°C° 0.6 mm 2 mps 715 mmHg 89%
    07:00 +9°C° 0.6 mm 2 mps 715 mmHg 89%
    08:00 +10°C° 0.6 mm 1 mps 715 mmHg 89%
    09:00 +10°C° 1.2 mm 1 mps 715 mmHg 88%
    10:00 +10°C° 1.2 mm 2 mps 714 mmHg 87%
    11:00 +10°C° 1.2 mm 2 mps 714 mmHg 86%
    12:00 +12°C° 0.2 mm 2 mps 714 mmHg 86%
    13:00 +12°C° 0.2 mm 2 mps 713 mmHg 86%
    14:00 +13°C° 0.2 mm 1 mps 713 mmHg 86%
    15:00 +12°C° 0.6 mm 1 mps 713 mmHg 88%
    16:00 +12°C° 0.6 mm 1 mps 713 mmHg 91%
    17:00 +11°C° 0.6 mm 1 mps 713 mmHg 93%
    18:00 +11°C° 0.1 mm 1 mps 713 mmHg 93%
    19:00 +11°C° 0.1 mm 1 mps 714 mmHg 93%
    20:00 +10°C° 0.1 mm 1 mps 714 mmHg 93%
    21:00 +10°C° 0 mm 1 mps 714 mmHg 93%
    22:00 +10°C° 0 mm 1 mps 714 mmHg 93%
    23:00 +10°C° 0 mm 1 mps 714 mmHg 93%
    Show more